Montrose, CO

3:23 PM MDT on September 26, 2017 (GMT -0600)
Montrose Regional

Weather History for KMTJ - January, 2012

Change the Weather History Date:

Wednesday, January 11, 2012

  Actual Average Record
Temperature  
Mean Temperature 23 °F 26 °F  
Max Temperature 34 °F 38 °F 55 °F (2000)
Min Temperature 11 °F 14 °F -9 °F (2011)
Degree Days  
Heating Degree Days 42 39  
Month to date heating degree days 426 439  
Since 1 July heating degree days 3001 3047  
Cooling Degree Days 0 0  
Month to date cooling degree days 0  
Year to date cooling degree days 0  
Moisture  
Dew Point 14 °F    
Average Humidity 66    
Maximum Humidity 88    
Minimum Humidity 43    
Precipitation  
Precipitation 0.00 in 0.02 in 0.20 in (2005)
Month to date precipitation T 0.24  
Year to date precipitation T 0.24  
Sea Level Pressure  
Sea Level Pressure 30.19 in    
Wind  
Wind Speed 7 mph (SSE)    
Max Wind Speed 22 mph    
Max Gust Speed 25 mph    
Visibility 10 miles    
Events      
T = Trace of Precipitation, MM = Missing Value Source: NWS Daily Summary

Daily Weather History Graph

Daily Weather History Graph

Search for Another Location

Airport or City:

Trip Planner

Search our weather history database for the weather conditions in past years. The results will help you decide how hot, cold, wet, or windy it might be!

Date:

Astronomy

Jan. 11, 2012 Rise Set
Actual Time 7:28 AM MST 5:10 PM MST
Civil Twilight 6:59 AM MST 5:39 PM MST
Nautical Twilight 6:26 AM MST 6:12 PM MST
Astronomical Twilight 5:54 AM MST 6:44 PM MST
Moon 8:09 PM MST (1/11) 8:44 AM MST (1/11)
Length of Visible Light 10h 39m
Length of Day
9h 41m
Waning Gibbous, 93% of the Moon is Illuminated
Jan 11
Waning Gibbous
Jan 16
Last Quarter
Jan 23
New
Jan 30
First Quarter
Feb 7
Full

Hourly Weather History & Observations

Time (MST) Temp. Windchill Dew Point Humidity Pressure Visibility Wind Dir Wind Speed Gust Speed Precip Events Conditions
12:53 AM 24.1 °F 14.4 °F 18.0 °F 77% 30.05 in 10.0 mi SSE 9.2 mph - N/A   Clear
1:53 AM 25.0 °F 20.7 °F 19.0 °F 78% 30.01 in 10.0 mi SSE 3.5 mph - N/A   Scattered Clouds
2:53 AM 24.1 °F 19.7 °F 19.0 °F 81% 30.04 in 10.0 mi WNW 3.5 mph - N/A   Mostly Cloudy
3:53 AM 21.0 °F 16.2 °F 17.1 °F 85% 30.04 in 10.0 mi SSE 3.5 mph - N/A   Scattered Clouds
4:53 AM 19.0 °F 12.3 °F 15.1 °F 85% 30.06 in 10.0 mi ESE 4.6 mph - N/A   Clear
5:53 AM 15.1 °F 7.7 °F 12.9 °F 91% 30.12 in 10.0 mi South 4.6 mph - N/A   Clear
6:53 AM 16.0 °F 4.4 °F 12.9 °F 88% 30.14 in 10.0 mi SE 9.2 mph - N/A   Clear
7:53 AM 17.1 °F 7.6 °F 12.9 °F 84% 30.18 in 10.0 mi SE 6.9 mph - N/A   Partly Cloudy
8:53 AM 19.0 °F 11.1 °F 15.1 °F 85% 30.20 in 10.0 mi South 5.8 mph - N/A   Clear
9:53 AM 30.0 °F - 21.0 °F 69% 30.18 in 10.0 mi Calm Calm - N/A   Clear
10:53 AM 32.0 °F 26.4 °F 19.0 °F 59% 30.18 in 10.0 mi North 5.8 mph - N/A   Clear
11:53 AM 30.9 °F 24.3 °F 21.0 °F 67% 30.17 in 10.0 mi North 6.9 mph - N/A   Mostly Cloudy
12:53 PM 34.0 °F 23.0 °F 18.0 °F 52% 30.14 in 10.0 mi NW 18.4 mph - N/A   Partly Cloudy
1:53 PM 34.0 °F 23.0 °F 16.0 °F 48% 30.13 in 10.0 mi NW 18.4 mph - N/A   Clear
2:53 PM 34.0 °F 26.0 °F 16.0 °F 48% 30.16 in 10.0 mi NW 10.4 mph - N/A   Clear
3:53 PM 33.1 °F 25.5 °F 14.0 °F 46% 30.18 in 10.0 mi NNW 9.2 mph - N/A   Clear
4:53 PM 30.9 °F 24.3 °F 14.0 °F 50% 30.22 in 10.0 mi NNW 6.9 mph - N/A   Clear
5:53 PM 27.0 °F 23.0 °F 12.0 °F 53% 30.26 in 10.0 mi North 3.5 mph - N/A   Clear
6:53 PM 25.0 °F 19.3 °F 12.0 °F 58% 30.28 in 10.0 mi South 4.6 mph - N/A   Clear
7:53 PM 18.0 °F 8.7 °F 10.0 °F 71% 30.33 in 10.0 mi South 6.9 mph - N/A   Clear
8:53 PM 14.0 °F 2.0 °F 8.1 °F 77% 30.37 in 10.0 mi SSE 9.2 mph - N/A   Clear
9:53 PM 16.0 °F 4.4 °F 8.1 °F 71% 30.35 in 10.0 mi South 9.2 mph - N/A   Clear
10:53 PM 14.0 °F 2.9 °F 6.1 °F 71% 30.37 in 10.0 mi SSE 8.1 mph - N/A   Clear
11:53 PM 12.0 °F 5.9 °F 5.0 °F 73% 30.38 in 10.0 mi Variable 3.5 mph - N/A   Clear